Home > Weather > Zhengzhou > Past weeks

Flag for China Weather for the Past 2 Weeks in Zhengzhou, Henan, China

Now
30 °F

Overcast.


Feels Like: 24 °F
Forecast: 29 / 42 °F
Wind: 6 mph from Northwest

Location: Zhengzhou Airport

Current Time: Feb 14, 2016 at 5:42:06 AM

Latest Report: Feb 14, 2016 at 5:00 AM


Visibility: N/A

Pressure: 30.45 "Hg

Humidity: 47%

Dew point: 12 °F

Location of ZhengzhouLocation

Historic Weather in Zhengzhou — Graph

°F

Zhengzhou Temperature Yesterday

Maximum temperature yesterday: 43 °F (at 12:00 AM)
Minimum temperature yesterday: 32 °F (at 11:00 PM)
Average temperature yesterday: 39 °F

High & Low Weather Summary for the Past Weeks

 TemperatureHumidityPressure
High70 °F (Feb 8, 3:00 PM)100% (Feb 12, 7:00 PM)30.69 "Hg (Feb 12, 7:00 PM)
Low14 °F (Feb 1, 3:00 AM)9% (Feb 8, 3:00 PM)29.83 "Hg (Feb 12, 3:00 PM)
Average39 °F51%30.27 "Hg
* Reported Jan 30 4:00 AM — Feb 14 4:00 AM, Zhengzhou, Weather by CustomWeather, © 2016

Note: Actual official high and low records may vary slightly from our data, if they occured in-between our weather recording intervals... More about our weather records

Advertising

Zhengzhou Weather History for the Previous 24 Hours

 ConditionsComfort  
Time TempWeatherWind HumidityBarometerVisibility
4:00 AM
Sun, Feb 14
34 °FOvercast.10 mph38%30.45 "HgN/A
3:00 AM34 °FOvercast.13 mph41%30.45 "HgN/A
2:00 AM34 °FOvercast.13 mph41%30.45 "HgN/A
1:00 AM36 °FOvercast.13 mph41%30.39 "HgN/A
12:00 AM34 °FOvercast.8 mph56%30.42 "HgN/A
11:00 PM
Sat, Feb 13
32 °FOvercast.No wind87%30.42 "HgN/A
10:00 PM34 °FOvercast.1 mph81%30.42 "HgN/A
9:00 PM34 °FOvercast.1 mph81%30.39 "HgN/A
8:00 PM34 °FOvercast.3 mph87%30.39 "HgN/A
7:00 PM36 °FOvercast.3 mph81%30.36 "HgN/A
6:00 PM36 °FLight rain. Overcast.8 mph81%30.33 "HgN/A
5:00 PM37 °FLight rain. Overcast.10 mph75%30.27 "HgN/A
4:00 PM37 °FOvercast.10 mph75%30.24 "HgN/A
3:00 PM37 °FOvercast.10 mph81%30.24 "HgN/A
2:00 PM39 °FLight rain. Overcast.13 mph65%30.24 "HgN/A
1:00 PM39 °FOvercast.15 mph56%30.24 "HgN/A
12:00 PM41 °FOvercast.15 mph66%30.21 "HgN/A
11:00 AM39 °FLight rain. Clear.15 mph70%30.21 "HgN/A
10:00 AM39 °FLight rain. Clear.15 mph65%30.21 "HgN/A
9:00 AM41 °FSunny.17 mph57%30.15 "Hg10 mi
8:00 AM41 °FSunny.15 mph61%30.09 "Hg10 mi
7:00 AM41 °FClear.20 mph61%30.04 "Hg10 mi
6:00 AM41 °FClear.20 mph66%30.01 "Hg10 mi
5:00 AM41 °FClear.22 mph70%30.01 "Hg10 mi
Weather by CustomWeather, © 2016

See weather overviewHow to use our weather pages